Location: Cudham
(51.3000°N, 0.0667°E)
Time: 15:54:20
(UTC+00:00)

Cosmos 2333 Rocket - Pass Details

Date: 19 May 2025
Orbit: 840 x 862 km, 70.8° (Epoch: 12 June)

Event Time Altitude Azimuth Distance (km) Brightness Sun altitude
Rises 22:02:48 0° 330° (NNW) 3,445 7.4 -14.5°
Reaches altitude 10° 22:05:34 10° 341° (NNW) 2,502 6.0 -14.7°
Maximum altitude 22:10:39 31° 43° (NE) 1,455 3.6 -15.1°
Drops below altitude 10° 22:15:41 10° 105° (ESE) 2,477 4.3 -15.4°
Enters shadow 22:15:53 - 106° (ESE) 2,545 4.3 -15.4°
